Regional Weather Roundup
Issued by NWS Mobile, AL

Home | Current Version | Previous Version | Text Only | Print | Product List | Glossary On
Versions: 1 2 3 4 5 6 7 8 9 10 11 12 13 14 15 16 17 18 19 20 21 22 23 24 25 26 27
000
ASUS44 KMOB 290812
RWRMOB
REGIONAL WEATHER ROUNDUP
NATIONAL WEATHER SERVICE MOBILE AL
300 AM CDT WED MAR 29 2017

NOTE: "FAIR" INDICATES FEW OR NO CLOUDS BELOW 12,000 FEET WITH NO
      SIGNIFICANT WEATHER AND/OR OBSTRUCTIONS TO VISIBILITY.

  * THESE STATIONS ARE PART OF THE UNIVERSITY OF SOUTH ALABAMA
    MESONET AND ARE NOT UNDER NWS OR FAA QUALITY CONTROL.

ALZ061>064-290900-
COASTAL ALABAMA

CITY           SKY/WX    TMP DP  RH WIND       PRES   REMARKS
MOBILE REG APT CLOUDY    67  65  93 SE3       29.96F FOG
BROOKLEY FIELD MOCLDY    72  68  87 S7        29.96S
USA CAMPUS*      N/A     66  66 100 CALM      29.95F
DOG RIVER*       N/A     68  66  94 CALM      30.69S


CITY           SKY/WX    TMP DP  RH WIND       PRES   REMARKS
GULF SHORES    PTCLDY    65  65 100 SE3       29.95F

$$

ALZ051>060-290900-
INTERIOR SOUTHWEST AND SOUTH CENTRAL ALABAMA

CITY           SKY/WX    TMP DP  RH WIND       PRES   REMARKS
GREENVILLE     CLOUDY    67  63  87 SW8       29.97S
EVERGREEN      CLOUDY    68  65  90 SW5       29.97F
ATMORE*          N/A    N/A N/A N/A S2        29.98F
ANDALUSIA/OPP  CLOUDY    70  65  84 SW5       29.97F
ANDALUSIA*       N/A     68  64  88 S3        29.97F
FLORALA APT    CLOUDY    68  65  90 SW6       29.99F
FLORALA*         N/A     66  66 100 CALM      30.68F

$$

FLZ001>006-290900-
WESTERN FLORIDA PANHANDLE

CITY           SKY/WX    TMP DP  RH WIND       PRES   REMARKS
PENSACOLA      PTCLDY    68  65  90 S3        29.96F
NAS PENSACOLA  PTCLDY    66  64  93 S6        29.95F
MILTON         LGT RAIN  62  62 100 CALM      29.96F VSB 1/4
WHTNG S FIELD  FOG       67  65  93 CALM      29.97F VSB 1/4


CITY           SKY/WX    TMP DP  RH WIND       PRES   REMARKS
JAY*             N/A     66  66 100 SE2       29.97F
DUKE FIELD     FOG       61  61 100 CALM      29.96F VSB 1/2
CRESTVIEW      FOG       67  65  93 CALM      29.98F VSB 1/4
VALPARAISO     CLEAR     66  65  97 CALM      29.97F
DESTIN         CLEAR     71  71 100 S3        29.97F

$$

MSZ076-079-290900-
INTERIOR SOUTHEAST MISSISSIPPI

CITY           SKY/WX    TMP DP  RH WIND       PRES   REMARKS
LEAKESVILLE*     N/A     66  66 100 CALM      29.94F
AGRICOLA*        N/A     66  66 100 CALM      29.94F

$$

MARINE OBSERVATIONS

STATION/POSITION TIME  TEMP    WIND        PRES    WAVE
                       AIR SEA DIR/SP/G            HT/PER
                 (UTC) (F)     (DEG/KT/KT) (MB)    (FT/S)
PASCAGOULA       0748   73     160/ 11/ 13 1013.6F
PETIT BOIS ISLND 0748   72     160/ 11/ 14 1014.4F
GRAND BAY        0645   73     170/ 11     1015.0F
KATRINA CUT      0730          170/ 11     1013.9F
CEDAR POINT      0730   72     170/ 11     1013.9F
E DAUPHIN ISLAND 0700   72     160/ 13/ 14 1013.9F
MIDDLE BAY LIGHT 0730   72     150/ 10     1013.9F
USCG MOBILE BAY  0748   72 74  170/  7/ 11 1014.7F
STATE DOCKS      0742   71 68              1014.1F
MEAHER PARK      0730   69     110/  4     1014.2S
WEEKS BAY        0645   68                   N/A
FORT MORGAN      0748   71     160/ 12/ 13   N/A
12 S ORANGE BCH  0750   70 71  150/  8/ 10 1014.1F   2/ 6
PENSACOLA BAY    0742   71 74  180/  6/  7 1014.6F
64 S DAUPHIN ISL 0750   72 73  150/ 14/ 16 1014.0F   3/ 5
67 S FORT MORGAN 0730   71     160/ 14     1014.2F

$$

SELECTED LOCATIONS ACROSS THE REGION

CITY           SKY/WX    TMP DP  RH WIND       PRES   REMARKS
NEW ORLEANS    CLEAR     70  67  90 SE10      29.89F
GULFPORT       MOCLDY    72  68  87 S7        29.92F
PASCAGOULA AP  FOG       64  62  93 CALM      29.94F VSB 1/4
PASCAGOULA*    NOT AVBL
HATTIESBURG    CLOUDY    68  66  93 SE5       29.93F
LAUREL         CLOUDY    66  64  94 SE5       29.93F
MERIDIAN       CLOUDY    68  66  93 S6        29.95R
JACKSON        PTCLDY    65  63  93 SE7       29.90F
MONTGOMERY     CLEAR     67  60  78 CALM      29.97F
TROY           CLOUDY    64  63  96 CALM      29.98F
ASHFORD*         N/A     68  64  88 S3        29.97F
DOTHAN         CLOUDY    68  66  93 W7        30.01F
PANAMA CITY    FOG       60  59  96 CALM      29.97F VSB 1/2

$$





USA.gov is the U.S. government's official web portal to all federal, state and local government web resources and services.